Terminal Aerodrome Forecast
Issued by NWS

Home | Current Version | Previous Version | Text Only | Print | Product List | Glossary On
Versions: 1 2 3 4 5 6 7 8 9 10 11 12 13 14 15 16 17 18 19 20 21 22 23 24 25 26 27 28 29 30 31 32 33 34 35 36 37 38 39 40 41 42 43 44
000
FTUS43 KDDC 210441 AAA
TAFGCK
TAF AMD
KGCK 210441Z 2105/2124 27004KT 1/2SM FZFG SKC
     FM210600 VRB05KT 2SM BR SCT003
     FM210800 VRB05KT P6SM SCT150
     FM211300 VRB05KT P6SM BKN150=

USA.gov is the U.S. government's official web portal to all federal, state and local government web resources and services.